Weather History for Wiscasset, ME

Change the Weather History Date:

Monday, January 7, 2013

  Actual Average Record
Temperature  
Mean Temperature 18 °F -  
Max Temperature 27 °F 29 °F 48 °F (2007)
Min Temperature 10 °F 12 °F 6 °F (2004)
Degree Days  
Heating Degree Days 46    
Moisture  
Dew Point 14 °F    
Average Humidity 74    
Maximum Humidity 86    
Minimum Humidity 49    
Precipitation  
Precipitation 0.00 in - - ()
Sea Level Pressure  
Sea Level Pressure 30.22 in    
Wind  
Wind Speed 2 mph (NNE)    
Max Wind Speed 7 mph    
Max Gust Speed -    
Visibility 9 miles    
Events Snow    
Averages and records for this station are not official NWS values.
T = Trace of Precipitation, MM = Missing Value Source: NWS Daily Summary

Daily Weather History Graph

Daily Weather History Graph

Search for Another Location

Airport:

Trip Planner

Search our weather history database for the weather conditions in past years. The results will help you decide how hot, cold, wet, or windy it might be!

Date:

Astronomy

Jan. 07, 2013 Rise Set
Actual Time 7:13 AM EST 4:17 PM EST
Civil Twilight 6:40 AM EST 4:50 PM EST
Nautical Twilight 6:04 AM EST 5:26 PM EST
Astronomical Twilight 5:29 AM EST 6:01 PM EST
Moon 2:30 AM EST (1/7) 12:27 PM EST (1/7)
Length of Visible Light 10h 09m
Length of Day
9h 04m
Waning Crescent, 23% of the Moon is Illuminated
Jan 7
Waning Crescent
Jan 11
New
Jan 18
First Quarter
Jan 26
Full
Feb 3
Last Quarter

Hourly Weather History & Observations

Time (EST) Temp. Windchill Dew Point Humidity Pressure Visibility Wind Dir Wind Speed Gust Speed Precip Events Conditions
12:53 AM 27.0 °F - 21.9 °F 81% 29.96 in 10.0 mi Calm Calm - N/A   Overcast
1:53 AM 27.0 °F 23.0 °F 23.0 °F 85% 29.99 in 10.0 mi Variable 3.5 mph - N/A   Overcast
2:18 AM 26.6 °F 21.2 °F 23.0 °F 86% 30.00 in 1.8 mi NE 4.6 mph - 0.00 in Snow Light Snow
2:32 AM 26.6 °F - 23.0 °F 86% 30.00 in 2.5 mi Calm Calm - 0.00 in Snow Light Snow
2:40 AM 26.6 °F 21.2 °F 23.0 °F 86% 30.00 in 6.0 mi Variable 4.6 mph - 0.00 in Snow Light Snow
2:53 AM 26.1 °F 21.9 °F 21.9 °F 84% 30.01 in 10.0 mi NE 3.5 mph - 0.00 in   Overcast
3:21 AM 24.8 °F - 21.2 °F 86% 30.01 in 10.0 mi Calm Calm - N/A   Mostly Cloudy
3:31 AM 24.8 °F 20.5 °F 21.2 °F 86% 30.02 in 10.0 mi Variable 3.5 mph - N/A   Mostly Cloudy
3:53 AM 26.1 °F 21.9 °F 21.0 °F 81% 30.03 in 10.0 mi Variable 3.5 mph - N/A   Overcast
4:53 AM 25.0 °F 20.7 °F 19.9 °F 81% 30.06 in 10.0 mi Variable 3.5 mph - N/A   Overcast
5:53 AM 23.0 °F - 17.1 °F 78% 30.11 in 9.0 mi Calm Calm - 0.00 in Snow Light Snow
6:53 AM 19.9 °F 11.1 °F 12.9 °F 74% 30.16 in 10.0 mi Variable 6.9 mph - N/A   Overcast
7:06 AM 19.4 °F 11.5 °F 12.2 °F 74% 30.17 in 10.0 mi North 5.8 mph - N/A   Overcast
7:53 AM 18.0 °F 12.7 °F 10.9 °F 74% 30.20 in 10.0 mi Variable 3.5 mph - N/A   Mostly Cloudy
8:53 AM 18.0 °F 9.8 °F 10.0 °F 71% 30.26 in 10.0 mi Variable 5.8 mph - N/A   Overcast
9:18 AM 19.4 °F 10.4 °F 10.4 °F 68% 30.28 in 10.0 mi NNE 6.9 mph - N/A   Overcast
9:43 AM 19.4 °F 12.8 °F 10.4 °F 68% 30.29 in 10.0 mi Variable 4.6 mph - N/A   Overcast
9:53 AM 19.9 °F 12.1 °F 9.0 °F 62% 30.30 in 10.0 mi Variable 5.8 mph - N/A   Overcast
10:53 AM 19.9 °F 13.4 °F 9.0 °F 62% 30.31 in 10.0 mi Variable 4.6 mph - N/A   Overcast
11:29 AM 21.2 °F 13.6 °F 8.6 °F 58% 30.31 in 10.0 mi Variable 5.8 mph - N/A   Scattered Clouds
11:53 AM 23.0 °F 18.4 °F 9.0 °F 55% 30.31 in 10.0 mi Variable 3.5 mph - N/A   Clear
12:53 PM 25.0 °F 20.7 °F 10.0 °F 53% 30.32 in 10.0 mi Variable 3.5 mph - N/A   Clear
1:53 PM 26.1 °F - 10.0 °F 51% 30.34 in 10.0 mi Calm Calm - N/A   Clear
2:53 PM 27.0 °F - 10.0 °F 49% 30.35 in 10.0 mi Calm Calm - N/A   Clear
3:53 PM 25.0 °F - 10.0 °F 53% 30.38 in 10.0 mi Calm Calm - N/A   Clear
4:53 PM 18.0 °F - 10.9 °F 74% 30.38 in 10.0 mi Calm Calm - N/A   Clear
5:53 PM 15.1 °F - 8.1 °F 74% 30.41 in 10.0 mi Calm Calm - N/A   Clear
6:53 PM 12.0 °F - 6.1 °F 77% 30.42 in 10.0 mi Calm Calm - N/A   Clear
7:53 PM 10.9 °F - 6.1 °F 81% 30.40 in 10.0 mi Calm Calm - N/A   Mostly Cloudy
8:53 PM 12.9 °F - 8.1 °F 81% 30.38 in 10.0 mi Calm Calm - N/A   Overcast
9:53 PM 16.0 °F - 12.0 °F 84% 30.37 in 10.0 mi Calm Calm - N/A   Overcast
10:00 PM 17.6 °F - 12.2 °F 79% 30.37 in 10.0 mi Calm Calm - N/A   Overcast
10:53 PM 16.0 °F - 10.9 °F 81% 30.37 in 10.0 mi Calm Calm - N/A   Scattered Clouds
11:53 PM 12.0 °F - 7.0 °F 80% 30.36 in 10.0 mi Calm Calm - N/A   Clear